El Paso, TX

6:40 PM MST on January 22, 2017 (GMT -0700)
El Paso International

Weather History for KELP - January, 2014

Change the Weather History Date:

Monday, January 20, 2014

  Actual Average Record
Temperature  
Mean Temperature 50 °F 45 °F  
Max Temperature 69 °F 58 °F 73 °F (1971)
Min Temperature 31 °F 33 °F 16 °F (1918)
Degree Days  
Heating Degree Days 15 20  
Month to date heating degree days 364 412  
Since 1 July heating degree days 1371 1480  
Cooling Degree Days 0 0  
Month to date cooling degree days 0 0  
Year to date cooling degree days 0 0  
Moisture  
Dew Point 11 °F    
Average Humidity 24    
Maximum Humidity 38    
Minimum Humidity 9    
Precipitation  
Precipitation 0.00 in 0.01 in 0.56 in (1916)
Month to date precipitation 0.00 0.25  
Year to date precipitation 0.00 0.25  
Snow  
Snow 0.00 in - - ()
Month to date snowfall 0.0  
Since 1 July snowfall T  
Snow Depth 0.00 in    
Sea Level Pressure  
Sea Level Pressure 30.13 in    
Wind  
Wind Speed 4 mph (NNE)    
Max Wind Speed 13 mph    
Max Gust Speed 16 mph    
Visibility 10 miles    
Events      
T = Trace of Precipitation, MM = Missing Value Source: NWS Daily Summary

Daily Weather History Graph

Daily Weather History Graph

Search for Another Location

Airport or City:

Trip Planner

Search our weather history database for the weather conditions in past years. The results will help you decide how hot, cold, wet, or windy it might be!

Date:

Astronomy

Jan. 20, 2014 Rise Set
Actual Time 7:04 AM MST 5:28 PM MST
Civil Twilight 6:38 AM MST 5:55 PM MST
Nautical Twilight 6:08 AM MST 6:24 PM MST
Astronomical Twilight 5:39 AM MST 6:53 PM MST
Moon 9:46 PM MST (1/20) 9:23 AM MST (1/20)
Length of Visible Light 11h 16m
Length of Day
10h 24m
Waning Gibbous, 82% of the Moon is Illuminated
Jan 20
Waning Gibbous
Jan 23
Last Quarter
Jan 30
New
Feb 6
First Quarter
Feb 14
Full

Hourly Weather History & Observations

Time (MST) Temp. Windchill Dew Point Humidity Pressure Visibility Wind Dir Wind Speed Gust Speed Precip Events Conditions
12:51 AM 39.9 °F 35.1 °F 10.0 °F 29% 30.05 in 10.0 mi North 6.9 mph - N/A   Scattered Clouds
1:51 AM 37.9 °F 35.5 °F 10.9 °F 33% 30.06 in 10.0 mi Variable 3.5 mph - N/A   Mostly Cloudy
2:51 AM 37.9 °F - 12.0 °F 35% 30.05 in 10.0 mi Calm Calm - N/A   Mostly Cloudy
3:51 AM 37.0 °F 32.4 °F 12.0 °F 36% 30.05 in 10.0 mi Variable 5.8 mph - N/A   Mostly Cloudy
4:51 AM 34.0 °F 29.8 °F 10.9 °F 38% 30.06 in 10.0 mi North 4.6 mph - N/A   Scattered Clouds
5:51 AM 35.1 °F 31.0 °F 10.9 °F 37% 30.08 in 10.0 mi North 4.6 mph - N/A   Scattered Clouds
6:51 AM 33.1 °F 28.7 °F 10.0 °F 38% 30.11 in 10.0 mi North 4.6 mph - N/A   Partly Cloudy
7:51 AM 35.1 °F 29.3 °F 12.0 °F 39% 30.12 in 10.0 mi NNE 6.9 mph - N/A   Partly Cloudy
8:51 AM 39.9 °F 37.8 °F 12.0 °F 32% 30.13 in 10.0 mi NNW 3.5 mph - N/A   Partly Cloudy
9:51 AM 46.9 °F - 12.9 °F 25% 30.13 in 10.0 mi Calm Calm - N/A   Partly Cloudy
10:51 AM 52.0 °F - 12.9 °F 21% 30.13 in 10.0 mi Calm Calm - N/A   Partly Cloudy
11:51 AM 55.9 °F - 12.9 °F 18% 30.11 in 10.0 mi Calm Calm - N/A   Scattered Clouds
12:51 PM 60.1 °F - 12.9 °F 16% 30.07 in 10.0 mi Calm Calm - N/A   Scattered Clouds
1:51 PM 64.0 °F - 12.0 °F 13% 30.06 in 10.0 mi Calm Calm - N/A   Scattered Clouds
2:51 PM 66.0 °F - 10.9 °F 12% 30.05 in 10.0 mi Calm Calm - N/A   Scattered Clouds
3:51 PM 68.0 °F - 10.9 °F 11% 30.06 in 10.0 mi Calm Calm - N/A   Partly Cloudy
4:51 PM 68.0 °F - 9.0 °F 10% 30.09 in 10.0 mi Calm Calm - N/A   Partly Cloudy
5:51 PM 57.9 °F - 10.9 °F 16% 30.13 in 10.0 mi ENE 5.8 mph - N/A   Partly Cloudy
6:51 PM 57.0 °F - 10.9 °F 16% 30.17 in 10.0 mi NNE 3.5 mph - N/A   Partly Cloudy
7:51 PM 51.1 °F - 10.9 °F 20% 30.21 in 10.0 mi NNE 5.8 mph - N/A   Partly Cloudy
8:51 PM 51.1 °F - 9.0 °F 18% 30.25 in 10.0 mi NE 6.9 mph - N/A   Partly Cloudy
9:51 PM 50.0 °F - 8.1 °F 18% 30.26 in 10.0 mi North 4.6 mph - N/A   Clear
10:51 PM 50.0 °F - 9.0 °F 19% 30.29 in 10.0 mi Variable 3.5 mph - N/A   Clear
11:51 PM 51.1 °F - 10.9 °F 20% 30.29 in 10.0 mi East 12.7 mph - N/A   Clear